Regional Weather Roundup
Issued by NWS

Home | Current Version | Previous Version | Graphics & Text | Print | Product List | Glossary On
Versions: 1 2 3 4 5 6 7 8 9 10 11 12 13 14 15 16 17 18 19 20 21 22 23 24 25 26 27 28 29 30 31 32 33 34 35 36 37 38 39 40 41 42 43 44 45 46 47 48 49 50
000
ASUS43 KLMK 300202
RWRKY
KENTUCKY REGIONAL WEATHER ROUNDUP
NATIONAL WEATHER SERVICE LOUISVILLE KY
1000 PM EDT MON MAY 29 2017

NOTE "FAIR" INDICATES FEW OR NO CLOUDS BELOW 12,000 FEET
WITH NO SIGNIFICANT WEATHER AND/OR OBSTRUCTIONS TO VISIBILITY.

KYZ001>023-026-027-061>063-070>075-300300-
WESTERN AND SOUTH CENTRAL KENTUCKY

CITY           SKY/WX    TMP DP  RH WIND       PRES   REMARKS
PADUCAH        CLOUDY    76  56  49 SW7       29.94S
HENDERSON      MOCLDY    74  59  59 S7        29.92F
OWENSBORO      CLEAR     71  60  68 S8        29.93F
HOPKINSVILLE   CLEAR     72  62  71 SW3       29.98R
BOWLING GREEN  CLEAR     74  63  68 S6        29.98R
GLASGOW        NOT AVBL
$$

KYZ024-025-028>034-038-045-046-053-300300-
NORTH CENTRAL KENTUCKY

CITY           SKY/WX    TMP DP  RH WIND       PRES   REMARKS
LOUISVILLE/SDF MOCLDY    76  57  51 S8        29.94R
LOUISVILLE/LOU CLEAR     76  58  53 S5        29.95R
FORT KNOX      CLEAR     69  59  70 SW5       29.95R
$$

KYZ035>037-039>044-047>052-055>060-089>105-300300-
NORTHEAST KENTUCKY

CITY           SKY/WX    TMP DP  RH WIND       PRES   REMARKS
LEXINGTON      CLOUDY    71  58  63 S8        29.99R
COVINGTON      MOCLDY    67  56  67 S6        29.94R
FRANKFORT      CLOUDY    69  58  67 S5        29.96R
$$

KYZ054-064>069-076>088-106>120-300300-
SOUTHEAST KENTUCKY

CITY           SKY/WX    TMP DP  RH WIND       PRES   REMARKS
JACKSON        CLOUDY    68  60  75 CALM      30.01R
LONDON         CLOUDY    68  62  81 CALM      30.02R
SOMERSET       CLOUDY    64  59  82 CALM      30.03R
MIDDLESBORO    CLOUDY    68  64  87 CALM      30.03R
MONTICELLO     PTCLDY    66  63  90 W12       30.04R
$$





USA.gov is the U.S. government's official web portal to all federal, state and local government web resources and services.